Torna al catalogo

FENGYUN 1C DEB

AttivoPO
NORAD 31356·DEBRIS·🇨🇳 China

Lanciato May 10, 1999 da Taiyuan Satellite Launch Center

Loading…

Prossimi Passaggi (prossime 24 ore)

TLE

AggiornatoSource: Space-Track

Epoca: Sep 13, 2026, 05:09 UTC

1 31356U 99025BRL 26256.21514557  .00017184  00000-0  20548-2 0  9996
2 31356  98.6504  42.1658 0025844 118.2835 242.0989 14.84005275691814

Traccia FENGYUN 1C DEB in tempo reale con AllMySat

Download on the App Store